Trustee Sales

Below is a list of all active and inactive Trustee’s Sales we are currently servicing. To find more information about individual sales, click the ‘Expand’ button. For your convenience, you may print the information. Our lists are updated every two hours to keep the most current information available to you. If you are in need of information not listed below, please call 623-581-3262.

Monday, December 1st, 2014 to Friday, December 5th, 2014

Sale Date File Number Property Address Zipcode Status
12/02/2014 14-34039 13221 N. 17th Place, Phoenix 85022 Closed Expand
12/02/2014 14-18154 2801 West Garfield Street, Phoenix 85009-3900 Closed Expand
12/03/2014 14-26196 3750 Diamond Bar Road, Meadview Closed Expand

Monday, December 8th, 2014 to Friday, December 12th, 2014

Sale Date File Number Property Address Zipcode Status
12/10/2014 14-34043 1309 W. 16th Street, Tempe 85281 Closed Expand
12/11/2014 13-12176 12505 W. Buckeye Road, Avondale 85323 Closed Expand
12/11/2014 14-26195 35375 S. Pinnacle Place, Black Canyon 85324 Closed Expand

Monday, December 15th, 2014 to Friday, December 19th, 2014

Sale Date File Number Property Address Zipcode Status
12/16/2014 14-26197 2504 N. 24th Street, Phoenix 85008 Closed Expand

Monday, December 29th, 2014 to Friday, January 2nd, 2015

Sale Date File Number Property Address Zipcode Status
12/30/2014 13-26150 27 E. 7th Street, Tempe 85281 Active Expand

Monday, January 5th, 2015 to Friday, January 9th, 2015

Sale Date File Number Property Address Zipcode Status
1/06/2015 14-34042 1906 E. Southern Avenue, Phoenix 85040 Active Expand
1/06/2015 13-31086 11174 W. Baden Street, Avondale 85323 Active Expand
1/06/2015 14-30004 10310 E. Hummingbird Lane, Gold Canyon 85218 Closed Expand
1/06/2015 14-26200 9220 N. 11th Avenue, Phoenix 85021 Active Expand
1/06/2015 14-17204 124 N. 89th Place, Mesa 85207 Active Expand
1/06/2015 14-12186 14749 Eaat Pecos Road, Gilbert 85295 Active Expand
1/06/2015 14-26199 Need Property address, Phoenix 85021 Active Expand
1/06/2015 13-31070 715 Clark Street, Jerome 86331 Active Expand
1/06/2015 14-26194 4607 S. 16th Street, Phoenix 85040 Active Expand
1/07/2015 13-34001 4756 Diamond M. Ranch Rd., Kingman 86401 Active Expand
1/09/2015 13-7027 4851 E. Broadway Blvd, Tucson 85711 Active Expand
1/09/2015 14-7029 8040 North 43rd Avenue, Glendale 85302 Active Expand
1/09/2015 213008 Kaur 9321 W. Elm Street, Phoenix 85037 Active Expand

Monday, January 12th, 2015 to Friday, January 16th, 2015

Sale Date File Number Property Address Zipcode Status
1/16/2015 14-7028 201 W. Fry Bouldevard, Sierra Vist 85635 Active Expand
1/16/2015 09-12104 1513 W. Hatcher Road, Phoenix 85021 Active Expand

Monday, January 19th, 2015 to Friday, January 23rd, 2015

Sale Date File Number Property Address Zipcode Status
1/23/2015 14-12185 2301 E. Colter Street, Phoenix 85016 Active Expand
1/23/2015 10-1317 726 W. Vogel Avenue, Phoenix 85021 Active Expand

Monday, January 26th, 2015 to Friday, January 30th, 2015

Sale Date File Number Property Address Zipcode Status
1/27/2015 14-34046 229 W. Vista Avenue, Phoenix 85021 Active Expand
1/27/2015 14-31109 2660 N. 43rd Ave. 15A, Phoenix 85009 Active Expand
1/28/2015 14-31106 53669 W. Clearview Road, Maricopa 85122 Active Expand

Monday, February 2nd, 2015 to Friday, February 6th, 2015

Sale Date File Number Property Address Zipcode Status
2/04/2015 09-1278 12180 E. Turquoise, Dewey 86327 Active Expand
2/06/2015 13-31064 15814 N. 83rd Avenue, Peoria 85382 Active Expand

Monday, February 9th, 2015 to Friday, February 13th, 2015

Sale Date File Number Property Address Zipcode Status
2/11/2015 14-26205 6725 W. Medlock Drive, Glendale 85303 Active Expand
2/11/2015 14-26204 635 E. Pearl Street, Benson 85602 Active Expand
2/13/2015 11-1326 2581 North Eagle View Loop, Show Low 85901 Active Expand
2/13/2015 11-1329 2681 Eagle View Circle, Show Low 85901 Active Expand
2/13/2015 11-1327 Multiple Parcels, Show Low Active Expand
2/13/2015 11-1328 4541, 4551, 4561, 4571, Show Low 85901 Active Expand

Monday, February 16th, 2015 to Friday, February 20th, 2015

Sale Date File Number Property Address Zipcode Status
2/18/2015 14-31114 5618 N. 61st Lane, Glendale 85301 Active Expand
2/18/2015 14-17205 1811 Hereford Drive, Prescott 86305 Active Expand

Monday, February 23rd, 2015 to Friday, February 27th, 2015

Sale Date File Number Property Address Zipcode Status
2/24/2015 14-7031 7709 E. Vancouver Place, Tucson 85730 Active Expand

Monday, March 2nd, 2015 to Friday, March 6th, 2015

Sale Date File Number Property Address Zipcode Status
3/03/2015 14-31115 5648 S. 44th Place, Phoenix 85040 Active Expand
3/03/2015 14-32023 11275 N. 99th Avenue, Peoria 85345 Active Expand
3/04/2015 12-1042 2416 West Cordia Lane, Phoenix 85085 Active Expand

Monday, March 9th, 2015 to Friday, March 13th, 2015

Sale Date File Number Property Address Zipcode Status
3/13/2015 14-34049 303 E. Evelyn Street, Casa Grande 85122 Active Expand
3/13/2015 14-26208 780 S. Hamilton Street, Chandler 85225 Active Expand
3/13/2015 14-26209 936 E Williams Field Road, Gilbert 85296 Active Expand

Monday, March 16th, 2015 to Friday, March 20th, 2015

Sale Date File Number Property Address Zipcode Status
3/17/2015 14-32024 2827 West Keim Drive, Phoenix 85017 Active Expand
3/17/2015 14-26202 2300 E. Hearne Avenue, Kingman 86401 Active Expand
3/17/2015 14-34051 5610 S. 20th Lane, Phoenix 85041 Active Expand
3/18/2015 13-12177 4495 S. Coach Drive, Tucson 85714 Active Expand

Monday, August 10th, 2015 to Friday, August 14th, 2015

Sale Date File Number Property Address Zipcode Status
8/14/2015 Dummy 449 Closed Expand